FW5793 Weather Reports


Display with metric or nautical units.
time (UTC)temp
F
wind
direction
speed
MPH
gust
MPH
rain 1hr
in
rain 24hr
in
rain mn
in
humidity
%
barometer
mb
20210926001643 79 0 0.0 2.0 0.00 0.00 0.00 18 1017.7
20210926000104 80 0 0.0 1.0 0.00 0.00 0.00 18 1017.7
20210925234542 81 0 0.0 4.0 0.00 0.00 0.00 17 1017.6
20210925233048 82 160 1.0 6.0 0.00 0.00 0.00 16 1017.6
20210925231600 82 160 2.0 6.0 0.00 0.00 0.00 14 1017.6
20210925230104 83 160 1.0 6.0 0.00 0.00 0.00 14 1017.8
20210925224546 84 160 2.0 6.0 0.00 0.00 0.00 13 1017.8
20210925223118 84 160 1.0 7.0 0.00 0.00 0.00 15 1017.8
20210925221616 84 160 0.0 6.0 0.00 0.00 0.00 14 1017.9
20210925220101 85 160 1.0 6.0 0.00 0.00 0.00 14 1018.2
20210925214542 85 160 3.0 8.0 0.00 0.00 0.00 14 1018.2
20210925213101 84 160 1.0 5.0 0.00 0.00 0.00 15 1018.4
20210925211550 84 160 2.0 8.0 0.00 0.00 0.00 15 1018.5
20210925210141 84 160 2.0 8.0 0.00 0.00 0.00 14 1018.7
20210925204535 84 160 2.0 8.0 0.00 0.00 0.00 15 1018.9
20210925203058 84 160 2.0 6.0 0.00 0.00 0.00 15 1019.2
20210925201639 83 160 0.0 7.0 0.00 0.00 0.00 15 1019.5
20210925200104 83 160 2.0 6.0 0.00 0.00 0.00 15 1019.8
20210925194556 82 160 1.0 6.0 0.00 0.00 0.00 17 1020.1
20210925193041 81 160 2.0 7.0 0.00 0.00 0.00 18 1020.4
20210925191552 81 160 1.0 8.0 0.00 0.00 0.00 20 1020.9
20210925190059 81 160 1.0 8.0 0.00 0.00 0.00 16 1021.3
20210925184535 79 160 3.0 9.0 0.00 0.00 0.00 21 1021.7
20210925183055 79 160 2.0 7.0 0.00 0.00 0.00 19 1021.9
20210925181543 78 160 1.0 6.0 0.00 0.00 0.00 18 1022.1
20210925180042 77 160 4.0 13.0 0.00 0.00 0.00 20 1022.3
20210925174533 74 160 1.0 7.0 0.00 0.00 0.00 21 1022.4
20210925173100 73 0 1.0 8.0 0.00 0.00 0.00 24 1022.7
20210925171628 72 160 2.0 7.0 0.00 0.00 0.00 24 1022.8
20210925170038 70 160 1.0 6.0 0.00 0.00 0.00 32 1022.9
20210925164547 69 160 1.0 5.0 0.00 0.00 0.00 31 1023.2
20210925163144 67 160 0.0 2.0 0.00 0.00 0.00 34 1023.2
20210925161556 64 0 1.0 4.0 0.00 0.00 0.00 38 1023.3
20210925160036 63 0 0.0 5.0 0.00 0.00 0.00 39 1023.5
20210925154645 61 160 0.0 5.0 0.00 0.00 0.00 46 1023.5
20210925153105 60 0 0.0 2.0 0.00 0.00 0.00 46 1023.7
20210925151535 55 0 0.0 1.0 0.00 0.00 0.00 53 1023.6
20210925150137 53 0 0.0 1.0 0.00 0.00 0.00 58 1023.7
20210925144546 52 0 0.0 1.0 0.00 0.00 0.00 53 1023.6
20210925143042 51 160 0.0 1.0 0.00 0.00 0.00 58 1023.8
20210925141548 50 0 0.0 0.0 0.00 0.00 0.00 64 1023.8
20210925140038 49 0 0.0 0.0 0.00 0.00 0.00 62 1023.7
20210925134546 48 0 0.0 1.0 0.00 0.00 0.00 63 1023.7
20210925133128 47 0 0.0 0.0 0.00 0.00 0.00 64 1023.7
20210925131701 46 0 0.0 0.0 0.00 0.00 0.00 64 1023.5
20210925130058 47 0 0.0 0.0 0.00 0.00 0.00 63 1023.5
20210925124637 47 0 0.0 0.0 0.00 0.00 0.00 63 1023.4
20210925123110 47 0 0.0 2.0 0.00 0.00 0.00 63 1023.2
20210925121532 47 0 0.0 0.0 0.00 0.00 0.00 64 1023.2
20210925120039 47 0 0.0 2.0 0.00 0.00 0.00 63 1023.2
20210925114605 47 0 0.0 4.0 0.00 0.00 0.00 63 1023.4
20210925113127 47 0 0.0 2.0 0.00 0.00 0.00 64 1023.4
20210925111535 47 160 0.0 2.0 0.00 0.00 0.00 64 1023.4
20210925110104 47 0 0.0 4.0 0.00 0.00 0.00 63 1023.5
20210925104604 48 0 0.0 0.0 0.00 0.00 0.00 63 1023.4
20210925103037 48 0 0.0 1.0 0.00 0.00 0.00 63 1023.5
20210925101551 48 0 0.0 2.0 0.00 0.00 0.00 63 1023.5
20210925100038 48 0 0.0 1.0 0.00 0.00 0.00 61 1023.5
20210925094537 48 0 0.0 2.0 0.00 0.00 0.00 60 1023.5
20210925093059 49 0 0.0 2.0 0.00 0.00 0.00 59 1023.6
20210925091532 50 0 0.0 0.0 0.00 0.00 0.00 57 1023.6
20210925090051 51 0 0.0 2.0 0.00 0.00 0.00 55 1023.7
20210925084538 51 160 0.0 5.0 0.00 0.00 0.00 54 1023.7
20210925083043 51 0 0.0 4.0 0.00 0.00 0.00 55 1023.8
20210925081546 51 0 0.0 1.0 0.00 0.00 0.00 54 1023.9
20210925080038 51 160 2.0 5.0 0.00 0.00 0.00 55 1024.0
20210925074607 51 0 0.0 4.0 0.00 0.00 0.00 56 1024.0
20210925073055 50 160 2.0 5.0 0.00 0.00 0.00 58 1024.2
20210925071702 50 160 1.0 2.0 0.00 0.00 0.00 60 1024.1
20210925070058 51 0 0.0 0.0 0.00 0.00 0.00 59 1024.3
20210925064637 51 0 0.0 0.0 0.00 0.00 0.00 56 1024.4
20210925063112 51 0 0.0 1.0 0.00 0.00 0.00 56 1024.5
20210925061610 52 0 0.0 0.0 0.00 0.00 0.00 55 1024.6
20210925060046 53 0 0.0 1.0 0.00 0.00 0.00 54 1024.8
20210925054539 53 0 0.0 0.0 0.00 0.00 0.00 52 1024.9
20210925053039 54 0 0.0 2.0 0.00 0.00 0.00 52 1024.9
20210925051543 55 0 0.0 0.0 0.00 0.00 0.00 50 1024.8
20210925050105 56 0 0.0 4.0 0.00 0.00 0.00 48 1024.8
20210925044540 56 0 1.0 4.0 0.00 0.00 0.00 46 1024.8
20210925043030 56 160 1.0 4.0 0.00 0.00 0.00 45 1024.9
20210925041554 57 160 1.0 5.0 0.00 0.00 0.00 45 1024.9
20210925040056 57 160 2.0 5.0 0.00 0.00 0.00 44 1025.1
20210925034613 57 160 1.0 5.0 0.00 0.00 0.00 46 1025.1
20210925033041 57 160 1.0 2.0 0.00 0.00 0.00 46 1025.1
20210925031624 58 0 0.0 1.0 0.00 0.00 0.00 46 1025.1
20210925030054 58 0 0.0 0.0 0.00 0.00 0.00 45 1025.1
20210925024557 59 0 0.0 0.0 0.00 0.00 0.00 46 1025.1
20210925023045 60 0 0.0 1.0 0.00 0.00 0.00 45 1025.0
20210925021601 60 0 0.0 1.0 0.00 0.00 0.00 42 1024.8
20210925020028 62 160 0.0 2.0 0.00 0.00 0.00 41 1024.7
20210925014645 62 0 1.0 4.0 0.00 0.00 0.00 38 1024.6
20210925013033 63 160 1.0 4.0 0.00 0.00 0.00 37 1024.6
20210925011529 64 160 2.0 5.0 0.00 0.00 0.00 37 1024.4
20210925010027 65 160 2.0 5.0 0.00 0.00 0.00 37 1024.2
20210925004552 66 0 1.0 5.0 0.00 0.00 0.00 35 1024.1
20210925003046 67 160 1.0 7.0 0.00 0.00 0.00 36 1024.1